Stündliche Wetter Kyslivka

Heute, 11 Mai, Dienstag

Zeit Temperatur Niederschläge Wind Luftdruck Luftfeuchtigkeit
00:00 +7°C° 0 mm 2 m/S 748 mmHg 75%
01:00 +7°C° 0 mm 2 m/S 748 mmHg 77%
02:00 +5°C° 0 mm 3 m/S 748 mmHg 78%
03:00 +5°C° 0 mm 3 m/S 748 mmHg 79%
04:00 +5°C° 0 mm 3 m/S 748 mmHg 79%
05:00 +5°C° 0 mm 3 m/S 747 mmHg 80%
06:00 +8°C° 0 mm 3 m/S 747 mmHg 75%
07:00 +8°C° 0 mm 4 m/S 747 mmHg 71%
08:00 +11°C° 0 mm 4 m/S 747 mmHg 67%
09:00 +13°C° 0 mm 5 m/S 747 mmHg 64%
10:00 +15°C° 0 mm 5 m/S 747 mmHg 62%
11:00 +17°C° 0 mm 5 m/S 746 mmHg 59%
12:00 +19°C° 0 mm 6 m/S 746 mmHg 59%
13:00 +19°C° 0 mm 6 m/S 746 mmHg 59%
14:00 +20°C° 0 mm 6 m/S 745 mmHg 58%
15:00 +20°C° 0 mm 6 m/S 745 mmHg 62%
16:00 +19°C° 0 mm 5 m/S 745 mmHg 66%
17:00 +19°C° 0 mm 5 m/S 745 mmHg 71%
18:00 +17°C° 0.1 mm 4 m/S 745 mmHg 78%
19:00 +14°C° 0.1 mm 4 m/S 745 mmHg 85%
20:00 +13°C° 0.1 mm 4 m/S 745 mmHg 93%
21:00 +12°C° 0 mm 3 m/S 745 mmHg 94%
22:00 +11°C° 0 mm 3 m/S 745 mmHg 95%
23:00 +9°C° 0 mm 3 m/S 745 mmHg 96%

Morgen, 12 Mai, Mittwoch

Zeit Temperatur Niederschläge Wind Luftdruck Luftfeuchtigkeit
00:00 +9°C° 0 mm 3 m/S 744 mmHg 96%
01:00 +8°C° 0 mm 3 m/S 744 mmHg 95%
02:00 +6°C° 0 mm 4 m/S 744 mmHg 95%
03:00 +5°C° 0 mm 4 m/S 744 mmHg 95%
04:00 +5°C° 0 mm 4 m/S 744 mmHg 95%
05:00 +4°C° 0 mm 4 m/S 744 mmHg 95%
06:00 +6°C° 0 mm 5 m/S 744 mmHg 89%
07:00 +7°C° 0 mm 5 m/S 744 mmHg 83%
08:00 +8°C° 0 mm 6 m/S 744 mmHg 77%
09:00 +9°C° 0 mm 6 m/S 744 mmHg 74%
10:00 +9°C° 0 mm 6 m/S 744 mmHg 71%
11:00 +10°C° 0 mm 6 m/S 744 mmHg 68%
12:00 +10°C° 0.1 mm 6 m/S 743 mmHg 68%
13:00 +10°C° 0.1 mm 5 m/S 743 mmHg 68%
14:00 +12°C° 0.1 mm 5 m/S 743 mmHg 68%
15:00 +10°C° 0.1 mm 5 m/S 743 mmHg 70%
16:00 +10°C° 0.1 mm 5 m/S 742 mmHg 73%
17:00 +11°C° 0.1 mm 4 m/S 742 mmHg 75%
18:00 +10°C° 0 mm 4 m/S 742 mmHg 81%
19:00 +9°C° 0 mm 3 m/S 741 mmHg 87%
20:00 +7°C° 0 mm 2 m/S 741 mmHg 93%
21:00 +7°C° 0 mm 2 m/S 741 mmHg 93%
22:00 +7°C° 0 mm 1 m/S 741 mmHg 94%
23:00 +7°C° 0 mm 1 m/S 741 mmHg 94%

übermorgen, 13 Mai, Donnerstag

Zeit Temperatur Niederschläge Wind Luftdruck Luftfeuchtigkeit
00:00 +6°C° 0 mm 1 m/S 740 mmHg 94%
01:00 +6°C° 0 mm 1 m/S 740 mmHg 94%
02:00 +6°C° 0 mm 1 m/S 740 mmHg 94%
03:00 +6°C° 0 mm 1 m/S 740 mmHg 94%
04:00 +6°C° 0 mm 1 m/S 740 mmHg 94%
05:00 +5°C° 0 mm 2 m/S 740 mmHg 94%
06:00 +7°C° 0 mm 2 m/S 740 mmHg 88%
07:00 +9°C° 0 mm 3 m/S 740 mmHg 82%
08:00 +10°C° 0 mm 4 m/S 740 mmHg 76%
09:00 +12°C° 0 mm 4 m/S 740 mmHg 69%
10:00 +13°C° 0 mm 4 m/S 740 mmHg 63%
11:00 +15°C° 0 mm 5 m/S 740 mmHg 56%
12:00 +15°C° 0 mm 5 m/S 740 mmHg 59%
13:00 +15°C° 0 mm 5 m/S 740 mmHg 61%
14:00 +15°C° 0 mm 5 m/S 739 mmHg 64%
15:00 +15°C° 0 mm 4 m/S 739 mmHg 66%
16:00 +14°C° 0 mm 4 m/S 739 mmHg 68%
17:00 +14°C° 0 mm 4 m/S 739 mmHg 71%
18:00 +14°C° 0.1 mm 4 m/S 739 mmHg 76%
19:00 +13°C° 0.1 mm 4 m/S 739 mmHg 81%
20:00 +12°C° 0.1 mm 3 m/S 739 mmHg 86%
21:00 +12°C° 0.1 mm 3 m/S 739 mmHg 89%
22:00 +11°C° 0.1 mm 3 m/S 738 mmHg 93%
23:00 +11°C° 0.1 mm 3 m/S 738 mmHg 96%

14 Mai, Freitag

Zeit Temperatur Niederschläge Wind Luftdruck Luftfeuchtigkeit
00:00 +11°C° 0.3 mm 3 m/S 738 mmHg 97%
01:00 +10°C° 0.3 mm 3 m/S 738 mmHg 97%
02:00 +10°C° 0.3 mm 3 m/S 738 mmHg 97%
03:00 +10°C° 0 mm 2 m/S 738 mmHg 97%
04:00 +10°C° 0 mm 2 m/S 738 mmHg 96%
05:00 +10°C° 0 mm 2 m/S 737 mmHg 96%
06:00 +11°C° 0 mm 3 m/S 737 mmHg 88%
07:00 +13°C° 0 mm 3 m/S 738 mmHg 81%
08:00 +14°C° 0 mm 4 m/S 738 mmHg 73%
09:00 +17°C° 0 mm 3 m/S 738 mmHg 69%
10:00 +18°C° 0 mm 3 m/S 738 mmHg 65%
11:00 +19°C° 0 mm 3 m/S 738 mmHg 62%
12:00 +19°C° 0.1 mm 4 m/S 738 mmHg 63%
13:00 +19°C° 0.1 mm 4 m/S 738 mmHg 64%
14:00 +20°C° 0.1 mm 4 m/S 738 mmHg 65%
15:00 +19°C° 0.3 mm 3 m/S 738 mmHg 70%
16:00 +18°C° 0.3 mm 3 m/S 738 mmHg 76%
17:00 +17°C° 0.3 mm 2 m/S 738 mmHg 81%
18:00 +16°C° 0 mm 2 m/S 738 mmHg 83%
19:00 +15°C° 0 mm 2 m/S 738 mmHg 85%
20:00 +14°C° 0 mm 2 m/S 738 mmHg 88%
21:00 +13°C° 0 mm 2 m/S 738 mmHg 88%
22:00 +13°C° 0 mm 2 m/S 738 mmHg 87%
23:00 +12°C° 0 mm 2 m/S 738 mmHg 87%

15 Mai, Samstag

Zeit Temperatur Niederschläge Wind Luftdruck Luftfeuchtigkeit
00:00 +12°C° 0.1 mm 2 m/S 738 mmHg 89%
01:00 +12°C° 0.1 mm 2 m/S 738 mmHg 90%
02:00 +12°C° 0.1 mm 2 m/S 738 mmHg 91%
03:00 +12°C° 0.3 mm 2 m/S 738 mmHg 93%
04:00 +12°C° 0.3 mm 2 m/S 738 mmHg 95%
05:00 +12°C° 0.3 mm 2 m/S 739 mmHg 97%
06:00 +13°C° 0.1 mm 2 m/S 739 mmHg 92%
07:00 +13°C° 0.1 mm 3 m/S 739 mmHg 87%
08:00 +14°C° 0.1 mm 3 m/S 739 mmHg 83%
09:00 +15°C° 0 mm 4 m/S 740 mmHg 76%
10:00 +17°C° 0 mm 4 m/S 740 mmHg 69%
11:00 +19°C° 0 mm 5 m/S 740 mmHg 62%
12:00 +19°C° 0 mm 5 m/S 740 mmHg 61%
13:00 +19°C° 0 mm 5 m/S 740 mmHg 61%
14:00 +19°C° 0 mm 5 m/S 740 mmHg 60%
15:00 +19°C° 0 mm 5 m/S 740 mmHg 62%
16:00 +19°C° 0 mm 4 m/S 740 mmHg 63%
17:00 +19°C° 0 mm 4 m/S 740 mmHg 64%
18:00 +17°C° 0 mm 3 m/S 741 mmHg 70%
19:00 +15°C° 0 mm 2 m/S 741 mmHg 75%
20:00 +13°C° 0 mm 1 m/S 741 mmHg 81%
21:00 +13°C° 0 mm 1 m/S 741 mmHg 81%
22:00 +13°C° 0 mm 1 m/S 741 mmHg 82%
23:00 +12°C° 0 mm 1 m/S 741 mmHg 82%

16 Mai, Sonntag

Zeit Temperatur Niederschläge Wind Luftdruck Luftfeuchtigkeit
00:00 +12°C° 0 mm 1 m/S 741 mmHg 82%
01:00 +12°C° 0 mm 1 m/S 741 mmHg 83%
02:00 +11°C° 0 mm 1 m/S 741 mmHg 83%
03:00 +11°C° 0 mm 1 m/S 741 mmHg 83%
04:00 +11°C° 0 mm 1 m/S 741 mmHg 83%
05:00 +11°C° 0 mm 1 m/S 741 mmHg 83%
06:00 +13°C° 0 mm 2 m/S 742 mmHg 79%
07:00 +15°C° 0 mm 2 m/S 742 mmHg 74%
08:00 +17°C° 0 mm 2 m/S 742 mmHg 70%
09:00 +18°C° 0 mm 2 m/S 742 mmHg 66%
10:00 +19°C° 0 mm 3 m/S 742 mmHg 62%
11:00 +20°C° 0 mm 3 m/S 742 mmHg 58%
12:00 +21°C° 0 mm 3 m/S 742 mmHg 57%
13:00 +21°C° 0 mm 3 m/S 742 mmHg 55%
14:00 +21°C° 0 mm 3 m/S 741 mmHg 54%
15:00 +21°C° 0 mm 4 m/S 741 mmHg 58%
16:00 +21°C° 0 mm 4 m/S 741 mmHg 62%
17:00 +20°C° 0 mm 4 m/S 741 mmHg 66%
18:00 +19°C° 0 mm 4 m/S 741 mmHg 70%
19:00 +17°C° 0 mm 3 m/S 741 mmHg 75%
20:00 +16°C° 0 mm 3 m/S 741 mmHg 79%
21:00 +16°C° 0 mm 3 m/S 740 mmHg 79%
22:00 +14°C° 0 mm 3 m/S 740 mmHg 80%
23:00 +14°C° 0 mm 3 m/S 740 mmHg 80%
Mehr zeigen

Wir brauchen deine Erlaubnis

Meteoprog und unser Service Anbieter werden persönliche Daten aufbewahren, so wie Cookies, Geräte Bezeichnung oder ähnliche Technologien von deinem Gerät und Prozess, so wie Persönliche Daten Inhalte und Werbungen, genauso wie social Media und den Verkehr zu analysieren.

  • Aufbewahrung und/oder Zugang zu deiner Geräte Informationen.

    Cookies, Geräte Bezeichnung oder andere Informationen, können aufbewahrt oder Zugang zu deinem Gerät erhalten, für den Grund, der oben angegeben wird.

  • Personalisierte Werbung und Inhalte, Messungen, Einblick in das Publikum und Produkt Entwicklung.

    Werbungen und Inhalte können personalisiert werden, basierend auf ein Profil. Mehr Daten können besser personalisierte Werbungen und Inhalte hinzufügen. Werbung und Inhalte können gezeigt und gemessen werden. Einblicke über das Publikum, welche die Werbung gesehen haben und den Inhalt, können abgeleitet werden. So wie Daten können genutzt werden, um es zu verbessern oder die Benutzer Erfahrung zu verbessern das System und die Software.

Wenn du “Ich stimme zu” klickst, erlaubst du uns, die Cookies zu benutzen die Geräte Bezeichnung, den Web oder ähnliche Technologien zu benutzen. Deine Settings, können in deinem Gerät bei deinem Browser geändert werden.

Für den bestimmten Zweck, berechtigten Interessen beruhen darauf, mehr als auf den Inhalt. Du kannst mehr darüber in unseren Privaten und Cookie Politik lesen.